DW3068 Weather Reports


Display with metric or nautical units.
time (UTC)temp
F
wind
direction
speed
MPH
gust
MPH
rain 1hr
in
rain 24hr
in
rain mn
in
humidity
%
barometer
mb
20260507234352 55 119 0.0 1.0 0.00 0.12 0.00 80 1019.5
20260507233826 55 119 0.0 1.0 0.00 0.12 0.00 81 1019.5
20260507233328 54 119 0.0 0.0 0.00 0.12 0.00 81 1019.5
20260507232820 54 119 0.0 0.0 0.00 0.12 0.00 81 1019.6
20260507232354 54 119 0.0 0.0 0.00 0.12 0.00 80 1019.6
20260507231828 54 119 0.0 0.0 0.00 0.12 0.00 80 1019.6
20260507231314 54 119 0.0 0.0 0.00 0.12 0.00 81 1019.6
20260507230829 54 119 0.0 4.0 0.00 0.12 0.00 81 1019.7
20260507230322 54 119 0.0 4.0 0.00 0.12 0.00 81 1019.7
20260507225856 54 115 2.0 4.0 0.00 0.12 0.00 81 1019.5
20260507225320 54 360 0.0 1.0 0.00 0.12 0.00 80 1019.9
20260507224825 54 360 0.0 4.0 0.00 0.12 0.00 80 1019.9
20260507224320 54 360 2.0 4.0 0.00 0.12 0.00 81 1020.1
20260507223831 55 287 2.0 5.0 0.00 0.12 0.00 79 1020.1
20260507223314 56 238 1.0 3.0 0.00 0.12 0.00 79 1020.1
20260507222825 56 234 0.0 3.0 0.00 0.12 0.00 79 1020.0
20260507222337 57 234 1.0 3.0 0.00 0.12 0.00 78 1020.0
20260507221829 57 232 0.0 3.0 0.00 0.12 0.00 79 1019.8
20260507221314 57 232 1.0 3.0 0.00 0.12 0.00 79 1019.7
20260507220829 57 215 0.0 2.0 0.00 0.12 0.00 79 1019.8
20260507220314 57 215 0.0 2.0 0.00 0.12 0.00 79 1019.8
20260507215848 57 209 0.0 1.0 0.00 0.12 0.02 79 1019.9
20260507215319 57 209 0.0 2.0 0.00 0.12 0.02 79 1019.9
20260507214844 57 209 0.0 3.0 0.00 0.12 0.02 79 1020.1
20260507214317 57 207 0.0 2.0 0.00 0.12 0.02 79 1019.9
20260507213824 57 207 0.0 2.0 0.00 0.12 0.02 79 1020.1
20260507213315 57 207 0.0 3.0 0.00 0.12 0.02 79 1020.1
20260507212829 57 203 1.0 3.0 0.00 0.12 0.02 79 1020.1
20260507212338 57 174 0.0 2.0 0.00 0.12 0.02 79 1020.2
20260507211821 57 165 0.0 2.0 0.00 0.12 0.02 79 1020.1
20260507211335 57 165 1.0 4.0 0.00 0.12 0.02 79 1020.1
20260507210819 57 127 1.0 4.0 0.00 0.12 0.02 80 1020.0
20260507210333 56 221 0.0 1.0 0.00 0.12 0.02 80 1019.8
20260507205819 57 221 0.0 3.0 0.00 0.12 0.02 79 1020.0
20260507205331 56 205 1.0 3.0 0.00 0.12 0.02 80 1019.8
20260507204838 56 178 0.0 2.0 0.00 0.12 0.02 80 1019.7
20260507204331 56 178 0.0 2.0 0.00 0.12 0.02 80 1019.9
20260507203817 56 178 0.0 3.0 0.00 0.12 0.02 80 1019.9
20260507203330 56 178 1.0 2.0 0.00 0.12 0.02 80 1019.7
20260507202844 56 178 0.0 0.0 0.00 0.12 0.02 80 1019.7
20260507202316 56 178 0.0 2.0 0.00 0.12 0.02 80 1019.7
20260507201851 56 178 0.0 2.0 0.00 0.12 0.02 80 1019.7
20260507201338 57 178 0.0 1.0 0.00 0.12 0.02 80 1019.7
20260507200819 57 178 0.0 1.0 0.00 0.12 0.02 80 1019.7
20260507200314 57 178 0.0 1.0 0.00 0.12 0.02 80 1019.7
20260507195822 57 178 0.0 1.0 0.00 0.12 0.02 79 1019.7
20260507195336 57 178 1.0 2.0 0.00 0.12 0.02 79 1019.7
20260507194843 58 178 0.0 2.0 0.00 0.12 0.02 79 1019.5
20260507194345 58 178 0.0 0.0 0.00 0.12 0.02 79 1019.3
20260507193818 58 178 0.0 0.0 0.00 0.12 0.02 79 1019.3
20260507193332 58 178 0.0 2.0 0.00 0.12 0.02 79 1019.2
20260507192817 58 178 1.0 2.0 0.00 0.12 0.02 79 1019.5
20260507192331 59 217 0.0 1.0 0.00 0.12 0.02 79 1019.4
20260507191814 59 217 0.0 1.0 0.00 0.12 0.02 78 1019.5
20260507191327 59 217 0.0 1.0 0.00 0.12 0.02 78 1019.5
20260507190842 59 217 0.0 1.0 0.00 0.12 0.02 78 1019.5
20260507190343 59 217 0.0 0.0 0.00 0.12 0.02 77 1019.5
20260507185815 60 217 0.0 2.0 0.00 0.12 0.02 76 1019.4
20260507185330 60 217 0.0 2.0 0.00 0.12 0.02 76 1019.5
20260507184838 60 213 0.0 2.0 0.00 0.12 0.02 76 1019.4
20260507184330 60 213 1.0 3.0 0.00 0.12 0.02 76 1019.4
20260507183836 60 213 1.0 3.0 0.00 0.12 0.02 76 1019.2
20260507183350 60 213 0.0 3.0 0.00 0.12 0.02 76 1019.1
20260507182821 60 147 1.0 8.0 0.00 0.12 0.02 76 1019.0
20260507182336 60 143 3.0 8.0 0.00 0.12 0.02 76 1018.9
20260507181821 60 131 1.0 4.0 0.00 0.12 0.02 76 1018.9
20260507181336 61 160 1.0 4.0 0.00 0.12 0.02 76 1018.8
20260507180822 61 144 2.0 5.0 0.00 0.12 0.02 75 1018.7
20260507180355 61 104 3.0 5.0 0.00 0.12 0.02 75 1018.6
20260507175828 61 149 2.0 7.0 0.00 0.12 0.02 73 1018.6
20260507175337 62 115 2.0 7.0 0.00 0.12 0.02 72 1018.7
20260507174815 62 146 2.0 4.0 0.00 0.12 0.02 71 1018.7
20260507174350 62 146 2.0 4.0 0.00 0.12 0.02 70 1018.9
20260507173823 63 134 2.0 3.0 0.00 0.12 0.02 69 1018.9
20260507172818 64 138 1.0 3.0 0.00 0.12 0.02 67 1019.0
20260507172332 64 130 1.0 4.0 0.00 0.12 0.02 67 1019.0
20260507171817 65 229 1.0 7.0 0.00 0.12 0.02 66 1018.8
20260507171332 65 205 3.0 7.0 0.00 0.12 0.02 65 1018.9
20260507170817 66 194 1.0 4.0 0.00 0.12 0.02 64 1018.8
20260507170331 66 225 0.0 4.0 0.00 0.12 0.02 63 1018.8
20260507165826 66 208 0.0 1.0 0.00 0.12 0.02 63 1018.7
20260507165330 66 208 0.0 3.0 0.00 0.12 0.02 63 1018.7
20260507164816 66 208 1.0 3.0 0.00 0.12 0.02 63 1018.6
20260507164353 66 208 0.0 5.0 0.00 0.12 0.02 63 1018.7
20260507163818 66 240 1.0 5.0 0.00 0.12 0.02 64 1018.7
20260507163331 66 200 2.0 6.0 0.00 0.12 0.02 64 1018.6
20260507162826 66 217 3.0 6.0 0.00 0.12 0.02 64 1018.6
20260507162326 65 168 1.0 5.0 0.00 0.12 0.02 65 1018.7
20260507161821 65 215 3.0 7.0 0.00 0.12 0.02 65 1018.6
20260507161328 66 155 5.0 7.0 0.00 0.12 0.02 64 1018.7
20260507160824 66 244 1.0 6.0 0.00 0.12 0.02 65 1018.8
20260507160329 66 203 3.0 8.0 0.00 0.12 0.02 65 1018.7
20260507155824 66 184 4.0 9.0 0.00 0.12 0.02 64 1019.0
20260507155318 67 230 3.0 7.0 0.00 0.12 0.02 63 1019.0
20260507154843 67 252 3.0 6.0 0.00 0.12 0.02 63 1019.0
20260507154334 66 158 2.0 5.0 0.00 0.12 0.02 64 1018.9
20260507153850 66 222 2.0 7.0 0.00 0.12 0.02 64 1019.0
20260507153313 65 231 3.0 7.0 0.00 0.12 0.02 64 1019.1
20260507152828 64 213 3.0 9.0 0.00 0.12 0.02 66 1019.0
20260507152403 64 244 4.0 9.0 0.00 0.12 0.02 65 1019.0
20260507151827 65 225 3.0 7.0 0.00 0.12 0.02 66 1019.0
20260507151319 65 208 2.0 10.0 0.00 0.12 0.02 66 1018.9
20260507150851 65 225 5.0 10.0 0.00 0.12 0.02 65 1019.0
20260507150344 66 233 4.0 7.0 0.00 0.12 0.02 64 1019.0
20260507145828 66 236 2.0 8.0 0.00 0.12 0.02 65 1019.0
20260507145322 66 211 4.0 7.0 0.00 0.12 0.02 65 1019.1
20260507144828 65 155 1.0 10.0 0.00 0.12 0.02 66 1019.0
20260507144314 66 194 4.0 8.0 0.00 0.12 0.02 65 1019.1
20260507143829 65 148 2.0 8.0 0.00 0.12 0.02 65 1019.1
20260507143344 65 190 1.0 8.0 0.00 0.12 0.02 65 1019.1
20260507142838 65 227 3.0 8.0 0.00 0.12 0.02 64 1019.1
20260507142345 66 252 4.0 8.0 0.00 0.12 0.02 64 1019.2
20260507141817 65 218 1.0 10.0 0.00 0.12 0.02 67 1019.1
20260507141322 65 155 5.0 10.0 0.00 0.12 0.02 66 1019.3
20260507140837 65 190 2.0 6.0 0.00 0.12 0.02 67 1019.3
20260507140347 64 205 4.0 9.0 0.00 0.12 0.02 67 1019.3
20260507135840 64 215 3.0 10.0 0.00 0.12 0.02 68 1019.3
20260507135331 64 207 5.0 12.0 0.00 0.12 0.02 67 1019.4
20260507134838 64 232 4.0 12.0 0.00 0.12 0.02 68 1019.4
20260507134319 64 211 2.0 10.0 0.00 0.12 0.02 68 1019.3
20260507133832 63 269 4.0 15.0 0.00 0.12 0.02 69 1019.3
20260507133318 63 233 5.0 15.0 0.00 0.12 0.02 68 1019.2
20260507132830 63 225 4.0 9.0 0.00 0.12 0.02 68 1019.3
20260507132314 63 88 2.0 11.0 0.00 0.12 0.02 69 1019.4
20260507131831 63 137 6.0 11.0 0.00 0.12 0.02 69 1019.5
20260507131325 62 219 5.0 8.0 0.00 0.12 0.02 69 1019.4
20260507130829 62 248 3.0 13.0 0.00 0.12 0.02 71 1019.4
20260507130323 61 156 5.0 13.0 0.00 0.12 0.02 71 1019.5
20260507125815 61 190 2.0 6.0 0.00 0.12 0.02 72 1019.7
20260507125347 60 193 2.0 7.0 0.00 0.12 0.02 73 1019.6
20260507124833 60 234 4.0 6.0 0.04 0.12 0.02 73 1019.7
20260507124319 60 230 2.0 9.0 0.04 0.12 0.02 75 1019.8
20260507123831 59 219 2.0 9.0 0.04 0.12 0.02 75 1019.9
20260507123336 59 153 3.0 9.0 0.04 0.12 0.02 76 1019.8
20260507122826 59 104 2.0 5.0 0.04 0.12 0.02 76 1019.9
20260507122320 59 213 2.0 5.0 0.04 0.12 0.02 76 1020.0
20260507121836 59 209 2.0 4.0 0.04 0.12 0.02 76 1020.0
20260507121321 59 119 1.0 3.0 0.04 0.12 0.02 77 1020.1
20260507120835 59 113 1.0 4.0 0.04 0.12 0.02 77 1020.1
20260507120320 59 111 2.0 3.0 0.04 0.12 0.02 77 1020.2
20260507115832 59 105 1.0 3.0 0.04 0.12 0.02 77 1020.3
20260507115319 59 149 1.0 4.0 0.04 0.12 0.02 77 1020.3
20260507114825 59 190 1.0 4.0 0.00 0.08 0.02 77 1020.3
20260507114320 59 117 1.0 6.0 0.00 0.08 0.02 75 1020.2
20260507113836 59 216 2.0 8.0 0.00 0.08 0.02 74 1020.3
20260507113317 58 221 4.0 8.0 0.00 0.08 0.02 75 1020.4
20260507112850 59 225 2.0 4.0 0.00 0.08 0.02 75 1020.3
20260507112344 59 157 0.0 4.0 0.00 0.08 0.02 76 1020.4
20260507111855 59 157 1.0 5.0 0.00 0.08 0.02 77 1020.4
20260507111319 59 150 1.0 5.0 0.00 0.08 0.02 77 1020.5
20260507110834 59 109 1.0 4.0 0.00 0.08 0.02 76 1020.6
20260507110320 59 136 1.0 3.0 0.00 0.08 0.02 76 1020.7
20260507105814 58 111 2.0 3.0 0.00 0.08 0.02 76 1020.7
20260507105327 58 142 1.0 5.0 0.00 0.08 0.02 76 1020.8
20260507104832 58 254 2.0 5.0 0.00 0.08 0.02 76 1020.9
20260507104320 58 221 1.0 6.0 0.00 0.08 0.02 75 1020.8
20260507103833 59 206 3.0 6.0 0.00 0.08 0.02 74 1020.9
20260507103349 59 240 3.0 6.0 0.00 0.08 0.02 74 1020.9
20260507102828 59 249 1.0 6.0 0.00 0.08 0.02 74 1020.9
20260507102321 59 250 3.0 6.0 0.00 0.08 0.02 73 1021.0
20260507101837 59 240 2.0 9.0 0.00 0.08 0.02 74 1020.9
20260507101344 58 200 2.0 9.0 0.00 0.08 0.02 74 1021.0
20260507100818 58 178 2.0 8.0 0.00 0.08 0.02 73 1021.0
20260507100324 59 158 3.0 8.0 0.00 0.08 0.02 74 1021.1
20260507095835 58 220 2.0 7.0 0.00 0.08 0.02 73 1021.1
20260507095330 58 179 3.0 7.0 0.00 0.08 0.02 74 1021.1
20260507094816 58 245 2.0 6.0 0.00 0.08 0.02 74 1021.2
20260507094331 58 251 2.0 6.0 0.00 0.08 0.02 74 1021.2
20260507093815 58 229 1.0 6.0 0.00 0.08 0.02 75 1021.3
20260507093331 57 211 3.0 6.0 0.00 0.08 0.02 75 1021.2
20260507092817 57 211 2.0 6.0 0.00 0.08 0.02 74 1021.3
20260507092331 57 175 4.0 6.0 0.00 0.08 0.02 73 1021.3
20260507091847 58 225 2.0 7.0 0.00 0.08 0.02 74 1021.2
20260507091333 58 215 2.0 10.0 0.00 0.08 0.02 73 1021.2
20260507090827 57 202 2.0 10.0 0.00 0.08 0.02 73 1021.3
20260507090333 58 204 3.0 6.0 0.00 0.08 0.02 73 1021.2
20260507085826 57 234 2.0 8.0 0.00 0.08 0.02 73 1021.2
20260507085321 57 228 3.0 8.0 0.00 0.08 0.02 72 1021.2
20260507084818 58 231 2.0 5.0 0.00 0.08 0.02 74 1021.1
20260507084333 57 232 1.0 6.0 0.00 0.08 0.02 74 1021.1
20260507083828 58 219 2.0 4.0 0.00 0.08 0.02 74 1021.1
20260507083314 57 215 2.0 6.0 0.00 0.08 0.02 73 1021.1
20260507082829 57 224 2.0 6.0 0.00 0.08 0.02 72 1021.0
20260507082359 58 226 1.0 5.0 0.00 0.08 0.02 73 1021.0
20260507081822 58 227 3.0 7.0 0.00 0.08 0.02 72 1021.0
20260507081316 58 225 1.0 3.0 0.00 0.08 0.02 73 1021.1
20260507080832 58 216 1.0 4.0 0.00 0.08 0.02 73 1021.1
20260507080333 58 221 2.0 4.0 0.00 0.08 0.02 72 1021.0
20260507075848 58 227 1.0 4.0 0.00 0.08 0.02 72 1021.0
20260507075342 57 156 0.0 4.0 0.00 0.08 0.02 74 1021.0
20260507074816 57 155 2.0 6.0 0.00 0.08 0.02 73 1021.0
20260507074330 57 215 2.0 5.0 0.00 0.08 0.02 74 1021.0
20260507073815 56 192 1.0 4.0 0.00 0.08 0.02 73 1021.1
20260507073402 56 232 1.0 4.0 0.00 0.08 0.02 74 1021.0
20260507072844 56 204 2.0 4.0 0.00 0.08 0.02 73 1021.1
20260507072318 56 201 2.0 6.0 0.00 0.08 0.02 73 1021.1
20260507071824 56 229 2.0 7.0 0.00 0.08 0.02 74 1021.1
20260507071337 56 205 1.0 7.0 0.00 0.08 0.02 74 1021.2
20260507070826 56 232 4.0 6.0 0.04 0.08 0.02 72 1021.1
20260507070333 56 229 3.0 5.0 0.04 0.08 0.02 73 1021.1
20260507065827 56 190 2.0 5.0 0.04 0.08 0.02 73 1021.2
20260507065341 55 217 1.0 5.0 0.04 0.08 0.02 72 1021.1
20260507064847 55 199 1.0 5.0 0.04 0.08 0.02 73 1021.2
20260507064338 55 220 1.0 4.0 0.04 0.08 0.02 73 1021.1
20260507063820 55 204 1.0 5.0 0.08 0.08 0.02 72 1021.1
20260507063314 55 206 2.0 9.0 0.08 0.08 0.02 73 1021.1
20260507062818 55 227 1.0 5.0 0.08 0.08 0.02 74 1021.0
20260507062352 55 211 1.0 5.0 0.08 0.08 0.02 75 1021.0
20260507061825 55 194 2.0 5.0 0.08 0.08 0.02 75 1021.0
20260507061340 55 176 2.0 4.0 0.08 0.08 0.02 75 1021.0
20260507060830 55 221 1.0 4.0 0.04 0.04 0.01 76 1021.1
20260507060400 56 216 2.0 4.0 0.04 0.04 0.01 75 1021.0
20260507055819 56 211 2.0 4.0 0.04 0.04 0.01 75 1021.0
20260507055333 56 219 1.0 3.0 0.04 0.04 0.01 73 1020.8
20260507054839 56 219 0.0 1.0 0.04 0.04 0.01 73 1020.7
20260507054333 56 219 0.0 3.0 0.04 0.04 0.01 73 1020.7
20260507053847 57 219 0.0 5.0 0.00 0.00 0.00 73 1020.6
20260507053341 57 226 1.0 5.0 0.00 0.00 0.00 73 1020.5
20260507052823 57 236 1.0 3.0 0.00 0.00 0.00 71 1020.4
20260507052315 57 247 1.0 5.0 0.00 0.00 0.00 71 1020.2
20260507051829 57 215 1.0 5.0 0.00 0.00 0.00 72 1020.2
20260507051344 57 227 2.0 4.0 0.00 0.00 0.00 69 1020.2
20260507050855 58 270 1.0 4.0 0.00 0.00 0.00 72 1020.1
20260507050320 58 298 2.0 4.0 0.00 0.00 0.00 69 1020.1
20260507045833 58 228 1.0 5.0 0.00 0.00 0.00 69 1019.9
20260507045316 58 222 2.0 5.0 0.00 0.00 0.00 64 1019.7
20260507044842 58 223 1.0 4.0 0.00 0.00 0.00 65 1019.7
20260507044336 58 217 1.0 4.0 0.00 0.00 0.00 65 1019.5
20260507043829 58 207 1.0 3.0 0.00 0.00 0.00 65 1019.5
20260507043315 58 206 0.0 3.0 0.00 0.00 0.00 65 1019.4
20260507042830 58 196 1.0 3.0 0.00 0.00 0.00 66 1019.4
20260507042314 58 170 0.0 1.0 0.00 0.00 0.00 67 1019.3
20260507041848 58 170 0.0 1.0 0.00 0.00 0.00 67 1019.3
20260507041342 58 170 0.0 1.0 0.00 0.00 0.00 66 1019.2
20260507040834 58 170 0.0 2.0 0.00 0.00 0.00 66 1019.2
20260507040320 58 170 1.0 2.0 0.00 0.00 0.00 65 1019.2
20260507035813 58 162 1.0 2.0 0.00 0.00 0.00 64 1019.1
20260507035317 57 157 0.0 3.0 0.00 0.00 0.00 65 1019.2
20260507034818 57 157 0.0 3.0 0.00 0.00 0.00 65 1019.0
20260507034332 57 74 0.0 1.0 0.00 0.00 0.00 65 1019.1
20260507033818 56 74 0.0 1.0 0.00 0.00 0.00 66 1019.1
20260507033352 56 74 0.0 2.0 0.00 0.00 0.00 68 1019.0
20260507032845 56 74 1.0 2.0 0.00 0.00 0.00 70 1019.0
20260507032320 55 73 1.0 2.0 0.00 0.00 0.00 71 1019.1
20260507031823 56 73 0.0 2.0 0.00 0.00 0.00 72 1019.0
20260507031318 56 73 0.0 2.0 0.00 0.00 0.00 71 1018.9
20260507030823 56 73 0.0 1.0 0.00 0.00 0.00 72 1019.0
20260507030316 56 73 0.0 1.0 0.00 0.00 0.00 71 1019.0
20260507025822 56 73 0.0 1.0 0.00 0.00 0.00 70 1019.0
20260507025315 56 73 0.0 2.0 0.00 0.00 0.00 70 1018.9
20260507024820 56 73 0.0 2.0 0.00 0.00 0.00 69 1018.9
20260507024331 57 73 0.0 2.0 0.00 0.00 0.00 67 1018.8
20260507023816 56 73 0.0 2.0 0.00 0.00 0.00 66 1018.6
20260507023328 56 72 0.0 3.0 0.00 0.00 0.00 68 1018.6
20260507022823 56 93 0.0 3.0 0.00 0.00 0.00 68 1018.6
20260507022326 56 93 0.0 2.0 0.00 0.00 0.00 68 1018.6
20260507021819 56 93 0.0 2.0 0.00 0.00 0.00 69 1018.6
20260507021324 56 93 1.0 1.0 0.00 0.00 0.00 70 1018.6
20260507020819 56 93 0.0 2.0 0.00 0.00 0.00 70 1018.7
20260507020335 56 93 1.0 2.0 0.00 0.00 0.00 70 1018.7
20260507015821 56 93 1.0 2.0 0.00 0.00 0.00 69 1018.7
20260507015337 57 93 0.0 2.0 0.00 0.00 0.00 68 1018.6
20260507014815 57 93 1.0 2.0 0.00 0.00 0.00 66 1018.5
20260507014330 57 95 0.0 1.0 0.00 0.00 0.00 65 1018.5
20260507013816 57 95 0.0 1.0 0.00 0.00 0.00 66 1018.5
20260507013330 57 95 0.0 1.0 0.00 0.00 0.00 64 1018.4
20260507012825 57 95 0.0 1.0 0.00 0.00 0.00 65 1018.4
20260507012329 57 95 0.0 1.0 0.00 0.00 0.00 65 1018.3
20260507011824 57 95 0.0 2.0 0.00 0.00 0.00 65 1018.5
20260507011338 57 95 1.0 2.0 0.00 0.00 0.00 67 1018.4
20260507010844 57 95 0.0 2.0 0.00 0.00 0.00 67 1018.4
20260507010318 57 95 1.0 2.0 0.00 0.00 0.00 67 1018.4
20260507005824 56 95 0.0 3.0 0.00 0.00 0.00 68 1018.2
20260507005337 56 95 1.0 3.0 0.00 0.00 0.00 68 1018.2
20260507004818 56 94 0.0 1.0 0.00 0.00 0.00 69 1018.4
20260507004330 56 94 0.0 2.0 0.00 0.00 0.00 69 1018.4
20260507003844 56 94 1.0 2.0 0.00 0.00 0.00 69 1018.4
20260507003338 56 94 1.0 3.0 0.00 0.00 0.00 69 1018.3
20260507002823 56 94 1.0 3.0 0.00 0.00 0.00 69 1018.2
20260507002337 56 124 1.0 2.0 0.00 0.00 0.00 69 1018.2
20260507001822 56 125 0.0 2.0 0.00 0.00 0.00 69 1018.2
20260507001337 56 125 1.0 2.0 0.00 0.00 0.00 69 1018.2
20260507000831 56 125 0.0 4.0 0.00 0.00 0.00 69 1018.1
20260507000316 56 125 1.0 4.0 0.00 0.00 0.00 69 1018.1
20260506235832 57 136 2.0 3.0 0.00 0.00 0.00 69 1018.2
20260506235317 57 176 1.0 3.0 0.00 0.00 0.00 69 1018.2
20260506234853 57 178 0.0 0.0 0.00 0.00 0.00 69 1018.2